Location: Alto Pass Reservoir
(37.5801°N, 89.3084°W)
Time: 12:38:02
(UTC+00:00)

NEOSSAT - Pass Details

Date: 03 October 2022
Orbit: 767 x 784 km, 98.4° (Epoch: 26 November)

Event Time Altitude Azimuth Distance (km) Brightness Sun altitude
Rises 02:13:52 0° 352° (N) 3,281 ? -31.1°
Reaches altitude 10° 02:17:14 10° 329° (NNW) 2,348 ? -31.7°
Maximum altitude 02:19:55 14° 297° (WNW) 2,047 ? -32.2°
Drops below altitude 10° 02:22:37 10° 266° (W) 2,340 ? -32.7°
Sets 02:25:59 0° 242° (WSW) 3,263 ? -33.3°
